SCP
0 0 0 0 0 0 0 0 0 0 0 0 0 0 0 0 0 0 0 0 0 0 0 0 0 0 0 0 0 0 0 0 0 0 0 0 0 0 0 0 0 0 0
0 0 0 0 0 0 0 0 0 0 0 0 0 0 0 0 0 0 0 0 0 0 0 0 0 0 0 0 0 0 0 0 0 0 0 0 0 0 0 0 0 0 0
0 0 0 0 0 0 0 0 0 0 0 0 0 0 0 0 0 0 0 0 0 0 0 0 0 0 0 0 0 0 0 0 0 0 0 0 0 0 0 0 -0 0 0
0 0 0 0 0 0 0 0 0 0 0 0 0 0 0 0 0 0 0 0 0 0 0 0 0 0 0 0 0 0 0 0 0 0 0 0 0 0 -0 -0 -0 -0 -0
0 0 0 0 0 0 0 0 0 0 0 0 0 0 0 0 0 0 0 0 0 0 0 0 0 0 0 0 0 0 0 0 0 0 0 0 0 0 -0 -0 -0 -0 -0
0 0 0 0 0 0 0 0 0 0 0 0 0 0 0 0 0 0 0 0 0 0 0 0 0 0 0 0 0 0 0 0 0 0 0 0 -0 -0 -0 0 0 0 -0
0 0 0 0 0 0 0 0 0 0 0 0 0 0 0 0 0 0 0 0 0 0 0 0 0 0 0 0 0 0 0 0 0 0 -0 0 0 0 0 0 0 0 0
0 0 0 0 0 0 0 0 0 0 0 0 0 0 0 0 0 0 0 0 0 0 0 0 0 0 0 0 0 0 0 0 0 0 0 0 0 0 0 0 0 0 0
0 0 0 0 0 0 0 0 0 0 0 0 0 0 0 0 0 0 0 0 0 0 0 0 0 0 0 0 0 0 0 0 0 0 0 0 0 0 0 0 0 0 0
0 0 0 0 0 0 0 0 0 0 0 0 0 0 0 0 0 0 0 0 0 0 0 0 0 0 0 0 0 0 0 0 0 0 0 0 0 0 0 0 0 0 0
0 0 0 0 0 0 0 0 0 0 0 0 0 0 0 0 0 0 0 0 0 0 0 0 0 0 0 0 0 0 0 0 0 0 0 0 0 0 0 0 0 0 0
0 0 0 0 0 0 0 0 0 0 0 0 0 0 0 0 0 0 0 0 0 0 0 0 0 0 0 0 0 0 0 0 0 0 0 0 0 0 0 0 0 0 0
0 0 0 0 0 0 0 0 0 0 0 0 0 0 0 0 0 0 0 0 0 0 0 0 0 0 0 0 0 0 0 0 0 0 0 0 0 0 0 0 0 0 0
0 0 0 0 0 0 0 0 0 0 0 0 0 0 0 0 0 0 0 0 0 0 0 0 0 0 0 0 0 0 0 0 0 0 0 0 0 0 0 0 0 0 0
0 0 0 0 0 0 0 0 0 0 0 0 0 0 0 0 0 0 0 0 0 0 0 0 0 0 0 0 0 0 0 0 0 0 0 0 0 0 0 0 0 0 0
0 0 0 0 0 0 0 0 0 0 0 0 0 0 0 0 0 0 0 0 0 0 0 0 0 0 0 0 0 0 0 0 0 0 0 0 0 0 0 0 0 0 0
0 0 0 0 0 0 0 0 0 0 0 0 0 0 0 0 0 0 0 0 0 0 0 0 0 0 0 0 0 0 0 0 0 0 0 0 0 0 0 0 0 0 0
0 0 0 0 0 0 0 0 0 0 0 0 0 0 0 0 0 0 0 0 0 0 0 0 0 0 0 0 0 0 0 0 0 0 0 0 0 0 0 0 0 0 0
0 0 0 0 0 0 0 0 0 0 0 0 0 0 0 0 0 0 0 0 0 0 0 0 0 0 0 0 0 0 0 0 0 0 0 0 0 0 0 0 0 0 0
0 0 0 0 0 0 0 0 0 0 0 0 0 0 0 0 0 0 0 0 0 0 0 0 0 0 0 0 0 0 0 0 0 0 0 0 0 0 0 0 0 0 0
0 0 0 0 0 0 0 0 0 0 0 0 0 0 0 0 0 0 0 0 0 0 0 0 0 0 0 0 0 0 0 0 0 0 0 0 0 0 0 0 0 0 0
0 0 0 0 0 0 0 0 0 0 0 0 0 0 0 0 0 0 0 0 0 0 0 0 0 0 0 0 0 0 0 0 0 0 0 0 0 0 0 0 0 0 0
0 0 0 0 0 0 0 0 0 0 0 0 0 0 0 0 0 0 0 0 0 0 0 0 0 0 0 0 0 0 0 0 0 0 0 0 0 0 0 0 0 0 0
0 0 0 0 0 0 0 0 0 0 0 0 0 0 0 0 0 0 0 0 0 0 0 0 0 0 0 0 0 0 0 0 0 0 0 0 0 0 0 0 0 0 0
0 0 0 0 0 0 0 0 0 0 0 0 0 0 0 0 0 0 0 0 0 0 0 0 0 0 0 0 0 0 0 0 0 0 0 0 0 0 0 0 0 0 0
0 0 0 0 0 0 0 0 0 0 0 0 0 0 0 0 0 0 0 0 0 0 0 0 0 0 0 0 0 0 0 0 0 0 0 0 0 0 0 0 0 0 0
Wind_Speed_500mb
17 18 20 21 23 26 28 30 30 30 32 37 45 41 39 45 47 39 35 45 42 38 39 41 39 29 35 35 41 42 37 40 52 56 55 55 56 59 61 62 64 69 71
16 18 18 18 19 16 18 20 22 26 33 37 38 37 43 44 38 27 27 33 40 46 33 30 30 31 31 27 25 27 30 36 47 57 65 63 64 64 66 65 63 63 67
19 19 21 19 16 11 12 14 19 23 26 31 32 35 37 31 33 33 29 30 25 25 26 26 21 18 19 21 23 28 35 41 46 55 63 67 68 66 71 72 74 75 74
17 18 19 22 21 18 19 20 23 25 27 28 29 29 24 33 30 30 28 25 22 20 18 18 17 18 19 22 28 33 38 45 50 55 61 64 65 66 71 78 83 81 83
17 17 18 19 22 18 18 20 20 23 27 29 31 33 32 27 27 24 22 20 18 15 13 16 16 18 22 27 32 38 42 45 48 53 57 61 67 72 75 79 82 87 85
19 19 20 20 21 16 16 19 21 22 24 25 25 27 25 24 21 18 16 13 9 7 9 13 19 26 34 38 39 35 37 41 46 53 56 60 64 67 72 74 79 84 78
20 21 20 21 21 17 19 21 23 23 24 24 24 22 20 17 15 13 9 6 2 7 13 19 23 28 32 33 34 31 32 35 40 46 49 56 64 66 69 74 71 72 74
23 22 21 20 21 21 22 23 23 23 23 23 23 21 17 14 11 7 1 3 11 13 17 21 25 31 32 28 29 30 30 32 38 46 51 54 56 57 56 60 64 68 68
21 21 20 21 21 23 24 24 23 23 24 23 22 19 15 11 8 2 3 6 11 21 25 27 29 27 26 28 31 36 38 41 45 50 51 50 51 51 54 62 63 66 74
19 20 21 22 24 25 26 25 26 26 25 25 22 18 16 9 5 0 6 19 23 22 29 26 25 23 24 29 34 40 46 51 58 59 56 51 50 51 53 55 59 61 64
21 22 23 25 27 29 28 29 29 30 29 27 25 21 14 9 7 19 26 25 25 29 23 22 22 23 27 33 40 44 50 56 57 60 59 57 54 52 52 52 51 51 54
22 23 23 27 28 30 31 32 34 33 31 28 22 18 13 16 23 30 39 26 23 19 17 16 17 24 30 34 38 45 50 52 53 55 58 58 60 60 58 57 55 52 49
21 23 26 29 32 34 36 39 39 37 33 28 25 22 25 30 38 36 27 23 21 19 17 18 22 26 30 34 39 44 48 50 53 55 56 56 56 58 58 58 53 51 50
24 28 32 34 36 38 39 40 40 37 33 32 31 34 32 35 31 31 28 25 22 18 16 16 19 23 28 32 36 41 44 47 50 51 52 54 55 57 58 59 62 60 59
29 33 37 37 39 40 41 42 43 40 37 36 38 37 33 32 36 42 33 27 24 20 16 17 19 21 25 29 33 36 38 40 42 46 51 55 56 58 59 60 59 58 55
35 39 42 41 42 45 48 53 50 48 44 41 40 38 37 41 44 42 35 29 25 20 17 17 19 24 29 33 35 36 39 40 43 45 47 50 52 55 57 57 56 55 58
41 44 45 46 48 51 56 57 53 50 46 46 41 44 41 45 47 38 35 29 26 21 18 18 22 26 30 33 36 39 40 42 43 44 45 47 48 48 51 53 54 55 56
45 47 47 50 52 57 60 57 58 54 49 44 47 47 43 43 43 38 36 33 25 23 20 20 23 26 29 32 35 36 38 40 39 41 42 44 45 45 47 49 50 54 56
48 50 51 55 60 64 63 67 62 57 53 52 53 46 45 46 45 40 37 33 30 25 24 24 24 27 29 32 34 37 38 38 39 37 37 38 40 42 41 43 47 48 52
53 56 59 63 67 69 72 73 66 63 58 56 52 54 53 53 51 39 36 37 34 29 28 28 28 30 31 33 34 35 35 35 35 35 36 37 38 40 42 42 45 49 50
58 62 65 70 74 74 79 77 71 68 59 56 56 55 57 56 52 49 44 42 39 35 32 30 30 32 34 35 35 35 34 33 37 39 41 43 43 41 42 42 43 44 47
61 67 71 75 78 81 84 78 73 69 65 62 60 59 59 59 58 53 51 48 43 40 37 33 32 34 36 38 38 37 37 38 42 46 45 46 46 43 44 43 42 44 46
59 67 75 79 82 85 83 79 75 70 64 61 61 61 61 63 59 55 53 49 49 44 43 39 36 36 38 39 41 42 43 44 48 50 48 48 47 46 45 45 43 44 45
62 66 73 81 86 87 86 83 80 74 71 72 67 65 66 63 61 58 56 55 53 48 48 44 42 40 39 41 44 47 50 51 52 52 53 51 50 48 48 47 44 44 44
62 68 73 81 89 88 87 89 87 81 76 75 71 67 65 63 62 60 59 58 56 53 48 47 47 46 46 45 46 49 52 54 54 54 55 55 54 51 48 47 46 44 43
63 67 74 80 86 87 88 88 87 81 76 76 68 66 64 63 63 61 61 59 56 55 52 50 50 51 51 50 50 52 53 54 54 54 56 56 55 52 48 47 46 45 41
Wind_Direction_500mb
274 274 270 267 268 270 269 268 267 257 256 258 262 256 267 270 270 264 254 270 264 272 276 276 264 257 271 270 285 288 292 295 296 304 309 312 312 314 314 314 312 309 309
287 288 289 286 280 271 266 264 257 254 256 258 259 259 267 267 263 269 260 267 272 271 264 265 266 272 282 283 289 294 297 299 302 308 311 316 319 325 325 320 318 315 315
295 296 296 293 283 259 251 256 260 260 261 266 269 265 254 259 257 269 269 268 254 254 259 267 270 274 279 289 298 307 311 311 311 311 316 321 323 326 322 324 326 328 328
293 289 289 293 290 270 254 256 259 260 260 259 258 234 253 265 265 264 257 255 254 255 258 265 272 282 295 307 314 320 322 321 321 320 320 320 324 329 331 333 330 333 333
289 289 283 280 281 266 252 254 255 251 251 253 253 256 259 253 252 251 248 247 246 251 264 280 294 309 319 325 325 327 323 323 322 321 324 327 333 334 336 334 331 332 334
285 283 278 277 275 265 249 245 246 247 247 246 247 251 250 245 241 237 239 241 251 285 319 335 345 345 332 326 321 328 326 323 325 324 328 330 333 333 331 330 330 331 329
269 270 270 271 274 263 248 241 241 240 241 237 235 232 232 230 226 226 229 246 335 7 343 333 331 330 328 318 315 316 321 323 321 325 329 334 331 332 329 327 326 323 321
258 263 267 267 264 262 253 246 242 238 232 227 223 221 221 214 197 191 178 4 343 348 338 327 321 309 298 301 307 315 320 323 335 339 333 331 331 331 327 323 321 321 321
261 264 264 263 259 252 246 240 234 230 229 224 218 211 195 184 161 200 333 356 338 318 306 318 293 293 299 308 314 325 336 341 338 337 337 335 329 326 322 320 324 325 324
268 268 265 258 251 246 240 238 234 228 225 220 214 199 184 200 197 215 338 319 310 309 304 295 300 306 314 322 328 335 336 337 335 334 334 332 328 325 325 324 324 322 323
255 257 257 256 250 244 241 236 231 227 221 214 204 204 214 200 283 324 321 312 306 281 288 297 308 313 318 332 336 336 336 334 334 334 334 334 332 331 330 328 326 322 315
251 254 255 252 248 242 237 231 223 217 207 202 212 206 229 285 301 307 308 276 276 279 284 287 305 323 333 334 335 333 332 333 332 331 332 335 336 336 336 334 332 324 316
257 254 251 245 240 235 233 227 219 211 212 214 216 239 270 288 299 287 274 278 270 268 281 301 314 330 333 333 330 330 332 331 333 334 336 339 340 339 337 332 332 328 322
259 253 248 244 241 234 226 218 218 220 221 226 238 266 279 281 262 266 266 260 254 261 280 303 320 324 327 330 333 333 332 334 337 338 339 339 338 340 341 342 340 340 336
256 252 248 244 239 232 226 222 223 225 226 236 262 266 254 247 253 256 261 255 257 266 280 297 314 317 321 329 331 333 335 336 337 340 340 340 341 341 344 344 343 342 343
260 254 250 244 238 232 227 225 226 224 236 258 259 248 244 254 261 266 263 256 258 264 279 293 304 317 327 332 336 336 335 338 339 341 340 339 339 342 343 345 344 344 343
259 253 249 244 237 233 230 228 230 236 255 252 243 242 254 260 263 266 262 258 256 263 276 292 308 321 326 330 332 334 336 337 338 337 334 335 336 338 339 343 345 346 347
255 249 248 246 242 235 231 235 240 252 254 244 242 260 260 259 260 257 254 255 255 263 272 287 305 315 320 325 329 330 330 332 333 333 333 334 334 335 338 341 346 346 346
255 251 248 244 239 236 235 240 244 248 238 246 254 256 264 266 260 256 250 251 253 258 269 284 296 307 315 321 325 325 325 327 329 331 330 332 334 336 341 344 345 349 348
258 252 246 244 239 237 241 244 244 243 239 248 251 257 259 258 257 260 251 251 254 257 266 280 294 302 309 314 315 318 319 320 321 322 324 328 331 333 336 339 343 345 348
258 253 250 246 242 242 246 248 251 245 241 247 252 259 260 256 254 253 251 251 251 255 262 272 284 295 301 304 309 311 311 312 312 313 316 317 318 319 322 326 331 336 339
264 258 253 249 247 245 249 249 247 237 238 245 256 254 255 257 255 253 252 250 251 254 261 267 277 285 293 299 301 302 302 306 307 308 312 311 311 313 313 317 320 324 330
269 261 256 251 250 250 250 247 242 237 241 248 255 253 253 256 255 252 252 253 253 255 260 266 272 279 286 291 295 297 301 305 305 308 309 307 307 308 310 313 315 318 322
268 261 257 253 253 253 250 244 240 239 243 244 250 255 255 255 254 253 253 252 255 258 261 267 273 279 283 288 291 295 299 302 304 306 305 304 304 305 306 308 310 312 314
266 262 258 253 253 254 252 247 244 243 246 250 249 251 253 253 252 253 253 253 255 259 264 270 275 280 283 285 287 291 295 299 301 301 300 300 301 302 303 303 305 304 306
268 264 261 258 256 255 254 252 251 248 249 251 249 251 253 254 254 253 254 255 259 262 264 268 273 277 280 284 287 289 293 295 296 295 296 297 297 298 298 298 298 298 300
Wind_Speed_850mb
17 18 20 21 23 26 28 30 30 30 32 37 45 41 39 45 47 39 35 45 42 38 39 41 39 29 35 35 41 42 37 40 52 56 55 55 56 59 61 62 64 69 71
16 18 18 18 19 16 18 20 22 26 33 37 38 37 43 44 38 27 27 33 40 46 33 30 30 31 31 27 25 27 30 36 47 57 65 63 64 64 66 65 63 63 67
19 19 21 19 16 11 12 14 19 23 26 31 32 35 37 31 33 33 29 30 25 25 26 26 21 18 19 21 23 28 35 41 46 55 63 67 68 66 71 72 74 75 74
17 18 19 22 21 18 19 20 23 25 27 28 29 29 24 33 30 30 28 25 22 20 18 18 17 18 19 22 28 33 38 45 50 55 61 64 65 66 71 78 83 81 83
17 17 18 19 22 18 18 20 20 23 27 29 31 33 32 27 27 24 22 20 18 15 13 16 16 18 22 27 32 38 42 45 48 53 57 61 67 72 75 79 82 87 85
19 19 20 20 21 16 16 19 21 22 24 25 25 27 25 24 21 18 16 13 9 7 9 13 19 26 34 38 39 35 37 41 46 53 56 60 64 67 72 74 79 84 78
20 21 20 21 21 17 19 21 23 23 24 24 24 22 20 17 15 13 9 6 2 7 13 19 23 28 32 33 34 31 32 35 40 46 49 56 64 66 69 74 71 72 74
23 22 21 20 21 21 22 23 23 23 23 23 23 21 17 14 11 7 1 3 11 13 17 21 25 31 32 28 29 30 30 32 38 46 51 54 56 57 56 60 64 68 68
21 21 20 21 21 23 24 24 23 23 24 23 22 19 15 11 8 2 3 6 11 21 25 27 29 27 26 28 31 36 38 41 45 50 51 50 51 51 54 62 63 66 74
19 20 21 22 24 25 26 25 26 26 25 25 22 18 16 9 5 0 6 19 23 22 29 26 25 23 24 29 34 40 46 51 58 59 56 51 50 51 53 55 59 61 64
21 22 23 25 27 29 28 29 29 30 29 27 25 21 14 9 7 19 26 25 25 29 23 22 22 23 27 33 40 44 50 56 57 60 59 57 54 52 52 52 51 51 54
22 23 23 27 28 30 31 32 34 33 31 28 22 18 13 16 23 30 39 26 23 19 17 16 17 24 30 34 38 45 50 52 53 55 58 58 60 60 58 57 55 52 49
21 23 26 29 32 34 36 39 39 37 33 28 25 22 25 30 38 36 27 23 21 19 17 18 22 26 30 34 39 44 48 50 53 55 56 56 56 58 58 58 53 51 50
24 28 32 34 36 38 39 40 40 37 33 32 31 34 32 35 31 31 28 25 22 18 16 16 19 23 28 32 36 41 44 47 50 51 52 54 55 57 58 59 62 60 59
29 33 37 37 39 40 41 42 43 40 37 36 38 37 33 32 36 42 33 27 24 20 16 17 19 21 25 29 33 36 38 40 42 46 51 55 56 58 59 60 59 58 55
35 39 42 41 42 45 48 53 50 48 44 41 40 38 37 41 44 42 35 29 25 20 17 17 19 24 29 33 35 36 39 40 43 45 47 50 52 55 57 57 56 55 58
41 44 45 46 48 51 56 57 53 50 46 46 41 44 41 45 47 38 35 29 26 21 18 18 22 26 30 33 36 39 40 42 43 44 45 47 48 48 51 53 54 55 56
45 47 47 50 52 57 60 57 58 54 49 44 47 47 43 43 43 38 36 33 25 23 20 20 23 26 29 32 35 36 38 40 39 41 42 44 45 45 47 49 50 54 56
48 50 51 55 60 64 63 67 62 57 53 52 53 46 45 46 45 40 37 33 30 25 24 24 24 27 29 32 34 37 38 38 39 37 37 38 40 42 41 43 47 48 52
53 56 59 63 67 69 72 73 66 63 58 56 52 54 53 53 51 39 36 37 34 29 28 28 28 30 31 33 34 35 35 35 35 35 36 37 38 40 42 42 45 49 50
58 62 65 70 74 74 79 77 71 68 59 56 56 55 57 56 52 49 44 42 39 35 32 30 30 32 34 35 35 35 34 33 37 39 41 43 43 41 42 42 43 44 47
61 67 71 75 78 81 84 78 73 69 65 62 60 59 59 59 58 53 51 48 43 40 37 33 32 34 36 38 38 37 37 38 42 46 45 46 46 43 44 43 42 44 46
59 67 75 79 82 85 83 79 75 70 64 61 61 61 61 63 59 55 53 49 49 44 43 39 36 36 38 39 41 42 43 44 48 50 48 48 47 46 45 45 43 44 45
62 66 73 81 86 87 86 83 80 74 71 72 67 65 66 63 61 58 56 55 53 48 48 44 42 40 39 41 44 47 50 51 52 52 53 51 50 48 48 47 44 44 44
62 68 73 81 89 88 87 89 87 81 76 75 71 67 65 63 62 60 59 58 56 53 48 47 47 46 46 45 46 49 52 54 54 54 55 55 54 51 48 47 46 44 43
63 67 74 80 86 87 88 88 87 81 76 76 68 66 64 63 63 61 61 59 56 55 52 50 50 51 51 50 50 52 53 54 54 54 56 56 55 52 48 47 46 45 41
Wind_Direction_850mb
274 274 270 267 268 270 269 268 267 257 256 258 262 256 267 270 270 264 254 270 264 272 276 276 264 257 271 270 285 288 292 295 296 304 309 312 312 314 314 314 312 309 309
287 288 289 286 280 271 266 264 257 254 256 258 259 259 267 267 263 269 260 267 272 271 264 265 266 272 282 283 289 294 297 299 302 308 311 316 319 325 325 320 318 315 315
295 296 296 293 283 259 251 256 260 260 261 266 269 265 254 259 257 269 269 268 254 254 259 267 270 274 279 289 298 307 311 311 311 311 316 321 323 326 322 324 326 328 328
293 289 289 293 290 270 254 256 259 260 260 259 258 234 253 265 265 264 257 255 254 255 258 265 272 282 295 307 314 320 322 321 321 320 320 320 324 329 331 333 330 333 333
289 289 283 280 281 266 252 254 255 251 251 253 253 256 259 253 252 251 248 247 246 251 264 280 294 309 319 325 325 327 323 323 322 321 324 327 333 334 336 334 331 332 334
285 283 278 277 275 265 249 245 246 247 247 246 247 251 250 245 241 237 239 241 251 285 319 335 345 345 332 326 321 328 326 323 325 324 328 330 333 333 331 330 330 331 329
269 270 270 271 274 263 248 241 241 240 241 237 235 232 232 230 226 226 229 246 335 7 343 333 331 330 328 318 315 316 321 323 321 325 329 334 331 332 329 327 326 323 321
258 263 267 267 264 262 253 246 242 238 232 227 223 221 221 214 197 191 178 4 343 348 338 327 321 309 298 301 307 315 320 323 335 339 333 331 331 331 327 323 321 321 321
261 264 264 263 259 252 246 240 234 230 229 224 218 211 195 184 161 200 333 356 338 318 306 318 293 293 299 308 314 325 336 341 338 337 337 335 329 326 322 320 324 325 324
268 268 265 258 251 246 240 238 234 228 225 220 214 199 184 200 197 215 338 319 310 309 304 295 300 306 314 322 328 335 336 337 335 334 334 332 328 325 325 324 324 322 323
255 257 257 256 250 244 241 236 231 227 221 214 204 204 214 200 283 324 321 312 306 281 288 297 308 313 318 332 336 336 336 334 334 334 334 334 332 331 330 328 326 322 315
251 254 255 252 248 242 237 231 223 217 207 202 212 206 229 285 301 307 308 276 276 279 284 287 305 323 333 334 335 333 332 333 332 331 332 335 336 336 336 334 332 324 316
257 254 251 245 240 235 233 227 219 211 212 214 216 239 270 288 299 287 274 278 270 268 281 301 314 330 333 333 330 330 332 331 333 334 336 339 340 339 337 332 332 328 322
259 253 248 244 241 234 226 218 218 220 221 226 238 266 279 281 262 266 266 260 254 261 280 303 320 324 327 330 333 333 332 334 337 338 339 339 338 340 341 342 340 340 336
256 252 248 244 239 232 226 222 223 225 226 236 262 266 254 247 253 256 261 255 257 266 280 297 314 317 321 329 331 333 335 336 337 340 340 340 341 341 344 344 343 342 343
260 254 250 244 238 232 227 225 226 224 236 258 259 248 244 254 261 266 263 256 258 264 279 293 304 317 327 332 336 336 335 338 339 341 340 339 339 342 343 345 344 344 343
259 253 249 244 237 233 230 228 230 236 255 252 243 242 254 260 263 266 262 258 256 263 276 292 308 321 326 330 332 334 336 337 338 337 334 335 336 338 339 343 345 346 347
255 249 248 246 242 235 231 235 240 252 254 244 242 260 260 259 260 257 254 255 255 263 272 287 305 315 320 325 329 330 330 332 333 333 333 334 334 335 338 341 346 346 346
255 251 248 244 239 236 235 240 244 248 238 246 254 256 264 266 260 256 250 251 253 258 269 284 296 307 315 321 325 325 325 327 329 331 330 332 334 336 341 344 345 349 348
258 252 246 244 239 237 241 244 244 243 239 248 251 257 259 258 257 260 251 251 254 257 266 280 294 302 309 314 315 318 319 320 321 322 324 328 331 333 336 339 343 345 348
258 253 250 246 242 242 246 248 251 245 241 247 252 259 260 256 254 253 251 251 251 255 262 272 284 295 301 304 309 311 311 312 312 313 316 317 318 319 322 326 331 336 339
264 258 253 249 247 245 249 249 247 237 238 245 256 254 255 257 255 253 252 250 251 254 261 267 277 285 293 299 301 302 302 306 307 308 312 311 311 313 313 317 320 324 330
269 261 256 251 250 250 250 247 242 237 241 248 255 253 253 256 255 252 252 253 253 255 260 266 272 279 286 291 295 297 301 305 305 308 309 307 307 308 310 313 315 318 322
268 261 257 253 253 253 250 244 240 239 243 244 250 255 255 255 254 253 253 252 255 258 261 267 273 279 283 288 291 295 299 302 304 306 305 304 304 305 306 308 310 312 314
266 262 258 253 253 254 252 247 244 243 246 250 249 251 253 253 252 253 253 253 255 259 264 270 275 280 283 285 287 291 295 299 301 301 300 300 301 302 303 303 305 304 306
268 264 261 258 256 255 254 252 251 248 249 251 249 251 253 254 254 253 254 255 259 262 264 268 273 277 280 284 287 289 293 295 296 295 296 297 297 298 298 298 298 298 300